Location: Artiguedieu
(43.5000°N, 0.5454°E)
Time: 19:19:46
(UTC+00:00)

Transit 2A - Pass Details

Date: 31 July 2021
Orbit: 594 x 964 km, 66.7° (Epoch: 28 September)

Event Time Altitude Azimuth Distance (km) Brightness Sun altitude
Rises 16:12:00 0° 318° (NW) 3,291 9.7 32.6°
Reaches altitude 10° 16:14:36 10° 308° (NW) 2,418 9.4 32.1°
Maximum altitude 16:19:22 29° 249° (WSW) 1,532 9.6 31.2°
Drops below altitude 10° 16:24:29 10° 192° (SSW) 2,597 9.0 30.3°
Sets 16:27:23 0° 181° (S) 3,576 9.5 29.8°
